Time,TemperatureF,DewpointF,PressureIn,WindDirection,WindDirectionDegrees,WindSpeedMPH,WindSpeedGustMPH,Humidity,HourlyPrecipIn,Conditions,Clouds,dailyrainin,SoftwareType,DateUTC
2013-04-07 00:00:00,44.7,21.2,30.04,SSE,167,3.0,7.0,39,0.00,,,0.00,Wunderground v.1.15,2013-04-07 04:00:00,
2013-04-07 00:01:00,44.7,21.8,30.04,SSE,155,2.0,3.0,40,0.00,,,0.00,Wunderground v.1.15,2013-04-07 04:01:00,
2013-04-07 00:02:00,44.7,21.2,30.04,SSE,165,3.0,3.0,39,0.00,,,0.00,Wunderground v.1.15,2013-04-07 04:02:00,
2013-04-07 00:08:00,44.8,21.3,30.04,SSE,161,4.0,4.0,39,0.00,,,0.00,Wunderground v.1.15,2013-04-07 04:08:00,
2013-04-07 00:13:00,45.0,21.5,30.03,South,178,1.0,5.0,39,0.00,,,0.00,Wunderground v.1.15,2013-04-07 04:13:00,
2013-04-07 00:19:00,45.0,21.5,30.03,SSW,211,1.0,5.0,39,0.00,,,0.00,Wunderground v.1.15,2013-04-07 04:19:00,
2013-04-07 00:25:00,45.1,21.6,30.03,South,182,1.0,6.0,39,0.00,,,0.00,Wunderground v.1.15,2013-04-07 04:25:00,
2013-04-07 00:30:00,45.1,21.6,30.02,SSW,198,1.0,4.0,39,0.00,,,0.00,Wunderground v.1.15,2013-04-07 04:30:00,
2013-04-07 00:36:00,45.1,22.2,30.02,South,180,3.0,4.0,40,0.00,,,0.00,Wunderground v.1.15,2013-04-07 04:36:00,
2013-04-07 00:41:00,45.1,21.6,30.01,South,174,3.0,3.0,39,0.00,,,0.00,Wunderground v.1.15,2013-04-07 04:41:00,
2013-04-07 00:46:00,45.1,22.2,30.01,SSE,149,5.0,6.0,40,0.00,,,0.00,Wunderground v.1.15,2013-04-07 04:46:00,
2013-04-07 00:52:00,45.2,22.3,30.01,SSW,209,0.0,6.0,40,0.00,,,0.00,Wunderground v.1.15,2013-04-07 04:52:00,
2013-04-07 00:59:00,45.2,22.3,30.00,SSE,161,5.0,6.0,40,0.00,,,0.00,Wunderground v.1.15,2013-04-07 04:59:00,
2013-04-07 01:04:00,45.3,22.4,30.00,SSE,162,1.0,5.0,40,0.00,,,0.00,Wunderground v.1.15,2013-04-07 05:04:00,
2013-04-07 01:09:00,45.3,22.4,30.00,SSE,158,4.0,5.0,40,0.00,,,0.00,Wunderground v.1.15,2013-04-07 05:09:00,
2013-04-07 01:14:00,45.3,22.4,29.99,SE,128,1.0,3.0,40,0.00,,,0.00,Wunderground v.1.15,2013-04-07 05:14:00,
2013-04-07 01:20:00,45.3,22.4,29.99,South,169,5.0,5.0,40,0.00,,,0.00,Wunderground v.1.15,2013-04-07 05:20:00,
2013-04-07 01:25:00,45.4,22.5,29.99,SE,126,3.0,5.0,40,0.00,,,0.00,Wunderground v.1.15,2013-04-07 05:25:00,
2013-04-07 01:31:00,45.4,22.5,29.98,NNE,16,3.0,4.0,40,0.00,,,0.00,Wunderground v.1.15,2013-04-07 05:31:00,
2013-04-07 01:37:00,45.6,22.6,29.97,SSW,194,3.0,5.0,40,0.00,,,0.00,Wunderground v.1.15,2013-04-07 05:37:00,
2013-04-07 01:43:00,45.7,22.7,29.97,SE,134,2.0,4.0,40,0.00,,,0.00,Wunderground v.1.15,2013-04-07 05:43:00,
2013-04-07 01:48:00,45.8,22.8,29.97,SSW,213,4.0,4.0,40,0.00,,,0.00,Wunderground v.1.15,2013-04-07 05:48:00,
2013-04-07 01:53:00,45.9,22.3,29.96,SE,142,0.0,6.0,39,0.00,,,0.00,Wunderground v.1.15,2013-04-07 05:53:00,
2013-04-07 01:59:00,46.0,22.4,29.96,SSW,203,1.0,6.0,39,0.00,,,0.00,Wunderground v.1.15,2013-04-07 05:59:00,
2013-04-07 02:04:00,46.2,22.6,29.96,North,355,3.0,8.0,39,0.00,,,0.00,Wunderground v.1.15,2013-04-07 06:04:00,
2013-04-07 02:09:00,46.3,22.7,29.95,SSW,200,6.0,9.0,39,0.00,,,0.00,Wunderground v.1.15,2013-04-07 06:09:00,
2013-04-07 02:14:00,46.4,22.8,29.95,ESE,119,3.0,9.0,39,0.00,,,0.00,Wunderground v.1.15,2013-04-07 06:14:00,
2013-04-07 02:19:00,46.5,22.2,29.95,South,173,3.0,9.0,38,0.00,,,0.00,Wunderground v.1.15,2013-04-07 06:19:00,
2013-04-07 02:24:00,46.6,22.9,29.94,South,187,3.0,12.0,39,0.00,,,0.00,Wunderground v.1.15,2013-04-07 06:24:00,
2013-04-07 02:29:00,46.7,23.0,29.93,SSE,147,3.0,12.0,39,0.00,,,0.00,Wunderground v.1.15,2013-04-07 06:29:00,
2013-04-07 02:35:00,46.8,23.7,29.94,South,187,2.0,7.0,40,0.00,,,0.00,Wunderground v.1.15,2013-04-07 06:35:00,
2013-04-07 02:40:00,46.9,23.8,29.93,SSE,155,1.0,8.0,40,0.00,,,0.00,Wunderground v.1.15,2013-04-07 06:40:00,
2013-04-07 02:45:00,47.1,23.4,29.93,SSW,210,3.0,9.0,39,0.00,,,0.00,Wunderground v.1.15,2013-04-07 06:45:00,
2013-04-07 02:50:00,47.2,25.3,29.92,SSE,162,5.0,15.0,42,0.00,,,0.00,Wunderground v.1.15,2013-04-07 06:50:00,
2013-04-07 02:55:00,47.1,26.3,29.93,SW,219,5.0,9.0,44,0.00,,,0.00,Wunderground v.1.15,2013-04-07 06:55:00,
2013-04-07 03:00:00,47.1,25.2,29.93,SSE,167,8.0,8.0,42,0.00,,,0.00,Wunderground v.1.15,2013-04-07 07:00:00,
2013-04-07 03:05:00,47.4,24.9,29.92,SSE,150,3.0,9.0,41,0.00,,,0.00,Wunderground v.1.15,2013-04-07 07:05:00,
2013-04-07 03:10:00,47.6,25.0,29.92,SW,216,5.0,5.0,41,0.00,,,0.00,Wunderground v.1.15,2013-04-07 07:10:00,
2013-04-07 03:15:00,47.7,25.1,29.91,SSE,150,6.0,8.0,41,0.00,,,0.00,Wunderground v.1.15,2013-04-07 07:15:00,
2013-04-07 03:20:00,47.9,24.7,29.90,SSE,158,6.0,10.0,40,0.00,,,0.00,Wunderground v.1.15,2013-04-07 07:20:00,
2013-04-07 03:26:00,48.1,24.9,29.90,ESE,122,8.0,10.0,40,0.00,,,0.00,Wunderground v.1.15,2013-04-07 07:26:00,
2013-04-07 03:30:00,48.2,25.0,29.88,South,175,7.0,9.0,40,0.00,,,0.00,Wunderground v.1.15,2013-04-07 07:30:00,
2013-04-07 03:35:00,48.4,24.6,29.89,South,184,11.0,13.0,39,0.00,,,0.00,Wunderground v.1.15,2013-04-07 07:35:00,
2013-04-07 03:41:00,48.6,24.7,29.89,SW,225,0.0,6.0,39,0.00,,,0.00,Wunderground v.1.15,2013-04-07 07:41:00,
2013-04-07 03:46:00,48.7,24.8,29.89,SW,229,2.0,10.0,39,0.00,,,0.00,Wunderground v.1.15,2013-04-07 07:46:00,
2013-04-07 03:51:00,48.9,23.7,29.89,SSW,208,7.0,9.0,37,0.00,,,0.00,Wunderground v.1.15,2013-04-07 07:51:00,
2013-04-07 03:56:00,49.1,23.9,29.89,SSW,207,3.0,15.0,37,0.00,,,0.00,Wunderground v.1.15,2013-04-07 07:56:00,
2013-04-07 04:01:00,49.3,24.1,29.88,SSE,159,5.0,8.0,37,0.00,,,0.00,Wunderground v.1.15,2013-04-07 08:01:00,
2013-04-07 04:06:00,49.3,23.4,29.88,South,184,8.0,13.0,36,0.00,,,0.00,Wunderground v.1.15,2013-04-07 08:06:00,
2013-04-07 04:11:00,49.4,24.2,29.88,South,185,14.0,14.0,37,0.00,,,0.00,Wunderground v.1.15,2013-04-07 08:11:00,
2013-04-07 04:17:00,49.4,24.2,29.88,WSW,253,7.0,14.0,37,0.00,,,0.00,Wunderground v.1.15,2013-04-07 08:17:00,
2013-04-07 04:22:00,49.3,24.1,29.88,SW,223,5.0,9.0,37,0.00,,,0.00,Wunderground v.1.15,2013-04-07 08:22:00,
2013-04-07 04:27:00,49.1,23.9,29.87,SW,217,5.0,11.0,37,0.00,,,0.00,Wunderground v.1.15,2013-04-07 08:27:00,
2013-04-07 04:32:00,49.0,23.8,29.87,WSW,250,5.0,9.0,37,0.00,,,0.00,Wunderground v.1.15,2013-04-07 08:32:00,
2013-04-07 04:37:00,48.9,23.7,29.87,ESE,109,3.0,11.0,37,0.00,,,0.00,Wunderground v.1.15,2013-04-07 08:37:00,
2013-04-07 04:42:00,48.9,23.1,29.87,SW,222,5.0,10.0,36,0.00,,,0.00,Wunderground v.1.15,2013-04-07 08:42:00,
2013-04-07 04:47:00,49.0,23.2,29.87,South,173,7.0,13.0,36,0.00,,,0.00,Wunderground v.1.15,2013-04-07 08:47:00,
2013-04-07 04:52:00,49.0,23.2,29.87,ESE,114,4.0,12.0,36,0.00,,,0.00,Wunderground v.1.15,2013-04-07 08:52:00,
2013-04-07 04:57:00,49.0,23.2,29.86,SSW,206,4.0,16.0,36,0.00,,,0.00,Wunderground v.1.15,2013-04-07 08:57:00,
2013-04-07 05:03:00,49.0,23.2,29.86,SSE,155,18.0,18.0,36,0.00,,,0.00,Wunderground v.1.15,2013-04-07 09:03:00,
2013-04-07 05:08:00,49.0,23.8,29.86,SSW,205,6.0,18.0,37,0.00,,,0.00,Wunderground v.1.15,2013-04-07 09:08:00,
2013-04-07 05:13:00,48.9,23.7,29.86,SW,225,5.0,13.0,37,0.00,,,0.00,Wunderground v.1.15,2013-04-07 09:13:00,
2013-04-07 05:18:00,48.9,23.7,29.85,South,170,9.0,15.0,37,0.00,,,0.00,Wunderground v.1.15,2013-04-07 09:18:00,
2013-04-07 05:23:00,48.9,23.7,29.85,SE,132,3.0,8.0,37,0.00,,,0.00,Wunderground v.1.15,2013-04-07 09:23:00,
2013-04-07 05:28:00,49.0,23.8,29.85,South,190,8.0,13.0,37,0.00,,,0.00,Wunderground v.1.15,2013-04-07 09:28:00,
2013-04-07 05:33:00,49.0,23.8,29.85,SSW,207,3.0,8.0,37,0.00,,,0.00,Wunderground v.1.15,2013-04-07 09:33:00,
2013-04-07 05:38:00,48.9,23.7,29.84,South,182,6.0,14.0,37,0.00,,,0.00,Wunderground v.1.15,2013-04-07 09:38:00,
2013-04-07 05:43:00,49.0,23.8,29.85,SSW,202,4.0,9.0,37,0.00,,,0.00,Wunderground v.1.15,2013-04-07 09:43:00,
2013-04-07 05:48:00,49.0,24.5,29.84,SSW,207,3.0,13.0,38,0.00,,,0.00,Wunderground v.1.15,2013-04-07 09:48:00,
2013-04-07 05:53:00,49.0,23.8,29.84,SE,145,4.0,12.0,37,0.00,,,0.00,Wunderground v.1.15,2013-04-07 09:53:00,
2013-04-07 05:58:00,49.0,24.5,29.84,SSW,211,4.0,15.0,38,0.00,,,0.00,Wunderground v.1.15,2013-04-07 09:58:00,
2013-04-07 06:03:00,49.0,24.5,29.84,WSW,237,3.0,14.0,38,0.00,,,0.00,Wunderground v.1.15,2013-04-07 10:03:00,
2013-04-07 06:08:00,49.1,24.6,29.83,SSW,192,4.0,15.0,38,0.00,,,0.00,Wunderground v.1.15,2013-04-07 10:08:00,
2013-04-07 06:13:00,49.1,24.6,29.84,SSW,204,6.0,7.0,38,0.00,,,0.00,Wunderground v.1.15,2013-04-07 10:13:00,
2013-04-07 06:18:00,49.1,25.2,29.83,SSW,192,3.0,11.0,39,0.00,,,0.00,Wunderground v.1.15,2013-04-07 10:18:00,
2013-04-07 06:23:00,49.2,25.3,29.83,SSW,198,1.0,8.0,39,0.00,,,0.00,Wunderground v.1.15,2013-04-07 10:23:00,
2013-04-07 06:28:00,49.2,25.3,29.83,SW,229,5.0,14.0,39,0.00,,,0.00,Wunderground v.1.15,2013-04-07 10:28:00,
2013-04-07 06:33:00,49.3,25.4,29.83,South,189,10.0,11.0,39,0.00,,,0.00,Wunderground v.1.15,2013-04-07 10:33:00,
2013-04-07 06:38:00,49.3,26.0,29.83,SSW,192,4.0,11.0,40,0.00,,,0.00,Wunderground v.1.15,2013-04-07 10:38:00,
2013-04-07 06:43:00,49.3,26.0,29.83,SSE,161,7.0,8.0,40,0.00,,,0.00,Wunderground v.1.15,2013-04-07 10:43:00,
2013-04-07 06:49:00,49.4,26.1,29.83,South,187,3.0,10.0,40,0.00,,,0.00,Wunderground v.1.15,2013-04-07 10:49:00,
2013-04-07 06:54:00,49.3,26.0,29.82,SW,221,3.0,9.0,40,0.00,,,0.00,Wunderground v.1.15,2013-04-07 10:54:00,
2013-04-07 06:59:00,49.3,26.6,29.82,SSE,166,1.0,9.0,41,0.00,,,0.00,Wunderground v.1.15,2013-04-07 10:59:00,
2013-04-07 07:04:00,49.2,26.5,29.82,South,181,5.0,7.0,41,0.00,,,0.00,Wunderground v.1.15,2013-04-07 11:04:00,
2013-04-07 07:09:00,49.2,26.5,29.82,SSW,193,1.0,7.0,41,0.00,,,0.00,Wunderground v.1.15,2013-04-07 11:09:00,
2013-04-07 07:14:00,49.1,27.0,29.82,SSW,192,5.0,8.0,42,0.00,,,0.00,Wunderground v.1.15,2013-04-07 11:14:00,
2013-04-07 07:19:00,49.1,27.0,29.82,SW,216,5.0,8.0,42,0.00,,,0.00,Wunderground v.1.15,2013-04-07 11:19:00,
2013-04-07 07:24:00,49.2,27.1,29.82,SSE,150,5.0,5.0,42,0.00,,,0.00,Wunderground v.1.15,2013-04-07 11:24:00,
2013-04-07 07:29:00,49.3,27.2,29.82,South,170,3.0,6.0,42,0.00,,,0.00,Wunderground v.1.15,2013-04-07 11:29:00,
2013-04-07 07:34:00,49.5,27.3,29.81,SSW,202,2.0,6.0,42,0.00,,,0.00,Wunderground v.1.15,2013-04-07 11:34:00,
2013-04-07 07:39:00,49.7,28.1,29.81,SSW,193,2.0,6.0,43,0.00,,,0.00,Wunderground v.1.15,2013-04-07 11:39:00,
2013-04-07 07:44:00,49.7,28.6,29.81,South,177,3.0,6.0,44,0.00,,,0.00,Wunderground v.1.15,2013-04-07 11:44:00,
2013-04-07 07:49:00,50.1,28.4,29.80,South,175,0.0,8.0,43,0.00,,,0.00,Wunderground v.1.15,2013-04-07 11:49:00,
2013-04-07 07:54:00,50.4,28.1,29.80,SSW,207,2.0,7.0,42,0.00,,,0.00,Wunderground v.1.15,2013-04-07 11:54:00,
2013-04-07 07:59:00,50.7,28.4,29.80,South,188,4.0,9.0,42,0.00,,,0.00,Wunderground v.1.15,2013-04-07 11:59:00,
2013-04-07 08:04:00,51.0,28.7,29.80,SSW,213,4.0,7.0,42,0.00,,,0.00,Wunderground v.1.15,2013-04-07 12:04:00,
2013-04-07 08:10:00,51.3,29.0,29.80,SW,232,5.0,5.0,42,0.00,,,0.00,Wunderground v.1.15,2013-04-07 12:10:00,
2013-04-07 08:15:00,51.6,29.2,29.80,SSE,152,6.0,12.0,42,0.00,,,0.00,Wunderground v.1.15,2013-04-07 12:15:00,
2013-04-07 08:20:00,51.9,29.5,29.79,SSW,205,4.0,6.0,42,0.00,,,0.00,Wunderground v.1.15,2013-04-07 12:20:00,
2013-04-07 08:25:00,52.1,29.7,29.79,SSW,196,2.0,11.0,42,0.00,,,0.00,Wunderground v.1.15,2013-04-07 12:25:00,
2013-04-07 08:30:00,52.1,29.1,29.79,SSW,205,3.0,6.0,41,0.00,,,0.00,Wunderground v.1.15,2013-04-07 12:30:00,
2013-04-07 08:35:00,52.2,29.2,29.78,SSE,165,5.0,10.0,41,0.00,,,0.00,Wunderground v.1.15,2013-04-07 12:35:00,
2013-04-07 08:40:00,52.4,29.4,29.78,South,178,10.0,10.0,41,0.00,,,0.00,Wunderground v.1.15,2013-04-07 12:40:00,
2013-04-07 08:45:00,52.8,29.7,29.78,SW,234,3.0,10.0,41,0.00,,,0.00,Wunderground v.1.15,2013-04-07 12:45:00,
2013-04-07 08:50:00,53.5,29.7,29.77,SW,219,8.0,10.0,40,0.00,,,0.00,Wunderground v.1.15,2013-04-07 12:50:00,
2013-04-07 08:55:00,54.2,30.4,29.77,South,176,8.0,11.0,40,0.00,,,0.00,Wunderground v.1.15,2013-04-07 12:55:00,
2013-04-07 09:00:00,54.6,30.7,29.77,South,179,3.0,10.0,40,0.00,,,0.00,Wunderground v.1.15,2013-04-07 13:00:00,
2013-04-07 09:06:00,54.7,30.2,29.77,SSE,150,3.0,10.0,39,0.00,,,0.00,Wunderground v.1.15,2013-04-07 13:06:00,
2013-04-07 09:11:00,54.9,30.4,29.76,SSW,195,4.0,12.0,39,0.00,,,0.00,Wunderground v.1.15,2013-04-07 13:11:00,
2013-04-07 09:16:00,54.9,30.4,29.77,SSE,153,7.0,12.0,39,0.00,,,0.00,Wunderground v.1.15,2013-04-07 13:16:00,
2013-04-07 09:21:00,55.5,30.9,29.76,SSW,196,6.0,7.0,39,0.00,,,0.00,Wunderground v.1.15,2013-04-07 13:21:00,
2013-04-07 09:27:00,56.4,31.1,29.76,SSE,167,9.0,19.0,38,0.00,,,0.00,Wunderground v.1.15,2013-04-07 13:27:00,
2013-04-07 09:32:00,56.7,30.7,29.76,SW,219,6.0,13.0,37,0.00,,,0.00,Wunderground v.1.15,2013-04-07 13:32:00,
2013-04-07 09:37:00,56.6,30.6,29.75,SW,219,6.0,14.0,37,0.00,,,0.00,Wunderground v.1.15,2013-04-07 13:37:00,
2013-04-07 09:42:00,56.6,31.9,29.75,SSW,202,3.0,10.0,39,0.00,,,0.00,Wunderground v.1.15,2013-04-07 13:42:00,
2013-04-07 09:47:00,57.2,31.8,29.75,South,174,13.0,18.0,38,0.00,,,0.00,Wunderground v.1.15,2013-04-07 13:47:00,
2013-04-07 09:52:00,58.0,32.5,29.75,WSW,254,3.0,10.0,38,0.00,,,0.00,Wunderground v.1.15,2013-04-07 13:52:00,
2013-04-07 09:57:00,58.0,31.8,29.75,WSW,252,7.0,14.0,37,0.00,,,0.00,Wunderground v.1.15,2013-04-07 13:57:00,
2013-04-07 10:02:00,57.8,31.7,29.75,SW,229,4.0,10.0,37,0.00,,,0.00,Wunderground v.1.15,2013-04-07 14:02:00,
2013-04-07 10:07:00,58.0,31.8,29.75,SSW,195,9.0,18.0,37,0.00,,,0.00,Wunderground v.1.15,2013-04-07 14:07:00,
2013-04-07 10:12:00,58.6,33.0,29.75,SSW,211,6.0,11.0,38,0.00,,,0.00,Wunderground v.1.15,2013-04-07 14:12:00,
2013-04-07 10:17:00,58.7,32.5,29.75,WSW,239,4.0,15.0,37,0.00,,,0.00,Wunderground v.1.15,2013-04-07 14:17:00,
2013-04-07 10:22:00,58.8,33.2,29.75,SSW,207,6.0,14.0,38,0.00,,,0.00,Wunderground v.1.15,2013-04-07 14:22:00,
2013-04-07 10:27:00,58.9,33.3,29.74,SW,229,4.0,14.0,38,0.00,,,0.00,Wunderground v.1.15,2013-04-07 14:27:00,
2013-04-07 10:32:00,59.3,33.7,29.74,SSW,204,4.0,13.0,38,0.00,,,0.00,Wunderground v.1.15,2013-04-07 14:32:00,
2013-04-07 10:37:00,59.8,33.5,29.74,SSW,210,7.0,14.0,37,0.00,,,0.00,Wunderground v.1.15,2013-04-07 14:37:00,
2013-04-07 10:42:00,60.0,33.6,29.74,SSW,204,12.0,16.0,37,0.00,,,0.00,Wunderground v.1.15,2013-04-07 14:42:00,
2013-04-07 10:48:00,60.5,33.4,29.73,SW,218,5.0,16.0,36,0.00,,,0.00,Wunderground v.1.15,2013-04-07 14:48:00,
2013-04-07 10:53:00,60.8,33.7,29.74,SSW,198,13.0,13.0,36,0.00,,,0.00,Wunderground v.1.15,2013-04-07 14:53:00,
2013-04-07 10:58:00,60.8,33.7,29.73,SSW,194,3.0,13.0,36,0.00,,,0.00,Wunderground v.1.15,2013-04-07 14:58:00,
2013-04-07 11:03:00,60.7,33.6,29.73,SSW,213,5.0,16.0,36,0.00,,,0.00,Wunderground v.1.15,2013-04-07 15:03:00,
2013-04-07 11:08:00,60.4,33.3,29.72,SW,215,4.0,16.0,36,0.00,,,0.00,Wunderground v.1.15,2013-04-07 15:08:00,
2013-04-07 11:13:00,60.2,33.8,29.73,South,169,8.0,12.0,37,0.00,,,0.00,Wunderground v.1.15,2013-04-07 15:13:00,
2013-04-07 11:18:00,60.0,33.6,29.73,WSW,258,3.0,14.0,37,0.00,,,0.00,Wunderground v.1.15,2013-04-07 15:18:00,
2013-04-07 11:23:00,59.9,34.2,29.73,South,186,5.0,10.0,38,0.00,,,0.00,Wunderground v.1.15,2013-04-07 15:23:00,
2013-04-07 11:29:00,60.1,34.4,29.72,SW,231,3.0,15.0,38,0.00,,,0.00,Wunderground v.1.15,2013-04-07 15:29:00,
2013-04-07 11:34:00,60.4,34.0,29.72,SSW,201,2.0,12.0,37,0.00,,,0.00,Wunderground v.1.15,2013-04-07 15:34:00,
2013-04-07 11:39:00,61.1,34.6,29.72,SSW,213,2.0,12.0,37,0.00,,,0.00,Wunderground v.1.15,2013-04-07 15:39:00,
2013-04-07 11:44:00,61.6,34.4,29.72,SW,223,3.0,13.0,36,0.00,,,0.00,Wunderground v.1.15,2013-04-07 15:44:00,
2013-04-07 11:49:00,61.9,35.3,29.72,SW,218,8.0,13.0,37,0.00,,,0.00,Wunderground v.1.15,2013-04-07 15:49:00,
2013-04-07 11:55:00,62.3,35.0,29.71,South,177,6.0,14.0,36,0.00,,,0.00,Wunderground v.1.15,2013-04-07 15:55:00,
2013-04-07 12:00:00,62.7,36.0,29.72,SSW,213,7.0,7.0,37,0.00,,,0.00,Wunderground v.1.15,2013-04-07 16:00:00,
2013-04-07 12:05:00,62.8,35.4,29.71,SSW,206,12.0,12.0,36,0.00,,,0.00,Wunderground v.1.15,2013-04-07 16:05:00,
2013-04-07 12:10:00,62.6,35.9,29.71,SW,215,0.0,5.0,37,0.00,,,0.00,Wunderground v.1.15,2013-04-07 16:10:00,
2013-04-07 12:15:00,62.2,36.3,29.71,SSW,201,3.0,7.0,38,0.00,,,0.00,Wunderground v.1.15,2013-04-07 16:15:00,
2013-04-07 12:20:00,62.6,36.6,29.70,SSE,158,9.0,14.0,38,0.00,,,0.00,Wunderground v.1.15,2013-04-07 16:20:00,
2013-04-07 12:25:00,63.9,37.1,29.70,WSW,244,7.0,14.0,37,0.00,,,0.00,Wunderground v.1.15,2013-04-07 16:25:00,
2013-04-07 12:31:00,64.7,37.1,29.70,East,94,11.0,11.0,36,0.00,,,0.00,Wunderground v.1.15,2013-04-07 16:31:00,
2013-04-07 12:36:00,65.6,37.9,29.70,SSW,198,6.0,14.0,36,0.00,,,0.00,Wunderground v.1.15,2013-04-07 16:36:00,
2013-04-07 12:41:00,66.2,37.7,29.69,SSW,213,8.0,11.0,35,0.00,,,0.00,Wunderground v.1.15,2013-04-07 16:41:00,
2013-04-07 12:46:00,66.4,38.6,29.69,SW,232,6.0,17.0,36,0.00,,,0.00,Wunderground v.1.15,2013-04-07 16:46:00,
2013-04-07 12:51:00,66.8,39.0,29.69,South,178,7.0,9.0,36,0.00,,,0.00,Wunderground v.1.15,2013-04-07 16:51:00,
2013-04-07 12:56:00,67.3,38.7,29.68,South,174,8.0,20.0,35,0.00,,,0.00,Wunderground v.1.15,2013-04-07 16:56:00,
2013-04-07 13:01:00,67.5,37.4,29.68,SSW,209,9.0,12.0,33,0.00,,,0.00,Wunderground v.1.15,2013-04-07 17:01:00,
2013-04-07 13:06:00,67.2,38.6,29.68,West,267,3.0,13.0,35,0.00,,,0.00,Wunderground v.1.15,2013-04-07 17:06:00,
2013-04-07 13:12:00,67.7,38.3,29.68,SSW,209,8.0,12.0,34,0.00,,,0.00,Wunderground v.1.15,2013-04-07 17:12:00,
2013-04-07 13:17:00,67.8,39.1,29.68,WSW,250,6.0,20.0,35,0.00,,,0.00,Wunderground v.1.15,2013-04-07 17:17:00,
2013-04-07 13:22:00,68.2,39.5,29.67,SW,221,4.0,13.0,35,0.00,,,0.00,Wunderground v.1.15,2013-04-07 17:22:00,
2013-04-07 13:27:00,68.5,39.0,29.67,SW,227,5.0,16.0,34,0.00,,,0.00,Wunderground v.1.15,2013-04-07 17:27:00,
2013-04-07 13:32:00,68.5,39.8,29.67,WSW,257,9.0,12.0,35,0.00,,,0.00,Wunderground v.1.15,2013-04-07 17:32:00,
2013-04-07 13:37:00,68.9,40.1,29.67,West,259,6.0,14.0,35,0.00,,,0.00,Wunderground v.1.15,2013-04-07 17:37:00,
2013-04-07 13:42:00,69.6,41.5,29.67,SW,222,4.0,13.0,36,0.00,,,0.00,Wunderground v.1.15,2013-04-07 17:42:00,
2013-04-07 13:47:00,70.3,42.8,29.67,WSW,256,11.0,18.0,37,0.00,,,0.00,Wunderground v.1.15,2013-04-07 17:47:00,
2013-04-07 13:52:00,70.6,41.6,29.66,WSW,247,8.0,19.0,35,0.00,,,0.00,Wunderground v.1.15,2013-04-07 17:52:00,
2013-04-07 13:57:00,70.8,41.8,29.67,SW,232,9.0,19.0,35,0.00,,,0.00,Wunderground v.1.15,2013-04-07 17:57:00,
2013-04-07 14:02:00,71.1,41.3,29.67,SW,217,8.0,14.0,34,0.00,,,0.00,Wunderground v.1.15,2013-04-07 18:02:00,
2013-04-07 14:07:00,71.5,43.1,29.67,SSW,195,5.0,15.0,36,0.00,,,0.00,Wunderground v.1.15,2013-04-07 18:07:00,
2013-04-07 14:12:00,71.6,41.7,29.67,SSW,192,18.0,19.0,34,0.00,,,0.00,Wunderground v.1.15,2013-04-07 18:12:00,
2013-04-07 14:17:00,71.3,42.2,29.67,SW,222,7.0,19.0,35,0.00,,,0.00,Wunderground v.1.15,2013-04-07 18:17:00,
2013-04-07 14:22:00,71.8,42.7,29.66,WNW,294,8.0,11.0,35,0.00,,,0.00,Wunderground v.1.15,2013-04-07 18:22:00,
2013-04-07 14:28:00,71.8,42.7,29.67,SSW,210,10.0,15.0,35,0.00,,,0.00,Wunderground v.1.15,2013-04-07 18:28:00,
2013-04-07 14:33:00,71.9,42.0,29.67,SW,215,6.0,18.0,34,0.00,,,0.00,Wunderground v.1.15,2013-04-07 18:33:00,
2013-04-07 14:38:00,71.9,42.8,29.67,West,265,5.0,19.0,35,0.00,,,0.00,Wunderground v.1.15,2013-04-07 18:38:00,
2013-04-07 14:43:00,72.6,42.6,29.67,South,190,10.0,15.0,34,0.00,,,0.00,Wunderground v.1.15,2013-04-07 18:43:00,
2013-04-07 14:48:00,71.9,42.8,29.67,WNW,282,13.0,16.0,35,0.00,,,0.00,Wunderground v.1.15,2013-04-07 18:48:00,
2013-04-07 14:53:00,72.1,44.4,29.68,SW,221,4.0,12.0,37,0.00,,,0.00,Wunderground v.1.15,2013-04-07 18:53:00,
2013-04-07 14:58:00,72.0,45.7,29.68,NNW,327,7.0,14.0,39,0.00,,,0.00,Wunderground v.1.15,2013-04-07 18:58:00,
2013-04-07 15:03:00,71.0,45.5,29.68,West,270,13.0,19.0,40,0.00,,,0.00,Wunderground v.1.15,2013-04-07 19:03:00,
2013-04-07 15:08:00,70.1,45.3,29.68,WNW,287,7.0,19.0,41,0.00,,,0.00,Wunderground v.1.15,2013-04-07 19:08:00,
2013-04-07 15:13:00,70.3,45.5,29.68,WNW,282,4.0,13.0,41,0.00,,,0.00,Wunderground v.1.15,2013-04-07 19:13:00,
2013-04-07 15:18:00,70.8,45.9,29.68,West,274,8.0,13.0,41,0.00,,,0.00,Wunderground v.1.15,2013-04-07 19:18:00,
2013-04-07 15:23:00,70.6,47.0,29.68,WSW,244,12.0,13.0,43,0.00,,,0.00,Wunderground v.1.15,2013-04-07 19:23:00,
2013-04-07 15:28:00,70.4,46.2,29.69,West,271,8.0,18.0,42,0.00,,,0.00,Wunderground v.1.15,2013-04-07 19:28:00,
2013-04-07 15:33:00,70.0,46.5,29.69,WNW,284,14.0,23.0,43,0.00,,,0.00,Wunderground v.1.15,2013-04-07 19:33:00,
2013-04-07 15:38:00,69.2,46.4,29.70,WNW,288,8.0,23.0,44,0.00,,,0.00,Wunderground v.1.15,2013-04-07 19:38:00,
2013-04-07 15:43:00,69.3,47.0,29.70,WNW,289,12.0,14.0,45,0.00,,,0.00,Wunderground v.1.15,2013-04-07 19:43:00,
2013-04-07 15:48:00,68.5,46.3,29.70,West,274,12.0,17.0,45,0.00,,,0.00,Wunderground v.1.15,2013-04-07 19:48:00,
2013-04-07 15:53:00,68.1,46.5,29.71,SSW,213,12.0,25.0,46,0.00,,,0.00,Wunderground v.1.15,2013-04-07 19:53:00,
2013-04-07 15:58:00,67.7,46.2,29.71,West,275,6.0,25.0,46,0.00,,,0.00,Wunderground v.1.15,2013-04-07 19:58:00,
2013-04-07 16:03:00,67.8,46.3,29.71,WSW,251,6.0,17.0,46,0.00,,,0.00,Wunderground v.1.15,2013-04-07 20:03:00,
2013-04-07 16:08:00,68.0,46.4,29.71,SW,227,7.0,17.0,46,0.00,,,0.00,Wunderground v.1.15,2013-04-07 20:08:00,
2013-04-07 16:13:00,67.8,46.3,29.72,WSW,254,16.0,28.0,46,0.00,,,0.00,Wunderground v.1.15,2013-04-07 20:13:00,
2013-04-07 16:18:00,67.6,46.1,29.72,West,270,15.0,28.0,46,0.00,,,0.00,Wunderground v.1.15,2013-04-07 20:18:00,
2013-04-07 16:23:00,67.6,46.1,29.72,West,277,10.0,15.0,46,0.00,,,0.00,Wunderground v.1.15,2013-04-07 20:23:00,
2013-04-07 16:28:00,66.9,46.0,29.72,West,263,12.0,21.0,47,0.00,,,0.00,Wunderground v.1.15,2013-04-07 20:28:00,
2013-04-07 16:33:00,67.0,45.5,29.72,NNW,333,9.0,21.0,46,0.00,,,0.00,Wunderground v.1.15,2013-04-07 20:33:00,
2013-04-07 16:38:00,66.8,45.3,29.73,WNW,288,23.0,25.0,46,0.00,,,0.00,Wunderground v.1.15,2013-04-07 20:38:00,
2013-04-07 16:43:00,66.6,45.2,29.74,West,267,8.0,25.0,46,0.00,,,0.00,Wunderground v.1.15,2013-04-07 20:43:00,
2013-04-07 16:48:00,66.6,45.7,29.75,SE,140,4.0,25.0,47,0.00,,,0.00,Wunderground v.1.15,2013-04-07 20:48:00,
2013-04-07 16:53:00,65.6,43.7,29.76,North,351,11.0,18.0,45,0.00,,,0.00,Wunderground v.1.15,2013-04-07 20:53:00,
2013-04-07 16:58:00,60.5,42.3,29.76,WNW,297,8.0,18.0,51,0.00,,,0.00,Wunderground v.1.15,2013-04-07 20:58:00,
2013-04-07 17:03:00,57.2,42.1,29.76,West,278,9.0,26.0,57,0.00,,,0.00,Wunderground v.1.15,2013-04-07 21:03:00,
2013-04-07 17:09:00,56.2,42.1,29.76,WNW,282,10.0,26.0,59,0.00,,,0.00,Wunderground v.1.15,2013-04-07 21:09:00,
2013-04-07 17:14:00,55.7,42.0,29.77,West,265,6.0,29.0,60,0.00,,,0.00,Wunderground v.1.15,2013-04-07 21:14:00,
2013-04-07 17:19:00,55.5,41.8,29.77,NNE,22,5.0,29.0,60,0.00,,,0.00,Wunderground v.1.15,2013-04-07 21:19:00,
2013-04-07 17:25:00,55.5,41.0,29.78,NW,309,10.0,23.0,58,0.00,,,0.00,Wunderground v.1.15,2013-04-07 21:25:00,
2013-04-07 17:30:00,55.4,40.9,29.78,NW,304,12.0,23.0,58,0.00,,,0.00,Wunderground v.1.15,2013-04-07 21:30:00,
2013-04-07 17:35:00,55.3,40.8,29.78,West,273,10.0,20.0,58,0.00,,,0.00,Wunderground v.1.15,2013-04-07 21:35:00,
2013-04-07 17:40:00,55.1,40.6,29.79,NW,310,10.0,20.0,58,0.00,,,0.00,Wunderground v.1.15,2013-04-07 21:40:00,
2013-04-07 17:45:00,54.7,40.6,29.79,West,265,4.0,18.0,59,0.00,,,0.00,Wunderground v.1.15,2013-04-07 21:45:00,
2013-04-07 17:50:00,54.4,40.4,29.80,NNW,328,7.0,19.0,59,0.00,,,0.00,Wunderground v.1.15,2013-04-07 21:50:00,
2013-04-07 17:55:00,53.7,40.6,29.80,WNW,293,8.0,27.0,61,0.00,,,0.00,Wunderground v.1.15,2013-04-07 21:55:00,
2013-04-07 18:00:00,53.3,40.2,29.81,North,355,13.0,15.0,61,0.00,,,0.00,Wunderground v.1.15,2013-04-07 22:00:00,
2013-04-07 18:05:00,53.5,40.4,29.80,SW,234,9.0,15.0,61,0.00,,,0.00,Wunderground v.1.15,2013-04-07 22:05:00,
2013-04-07 18:10:00,53.6,40.5,29.81,North,349,14.0,18.0,61,0.00,,,0.00,Wunderground v.1.15,2013-04-07 22:10:00,
2013-04-07 18:15:00,53.2,40.1,29.81,West,270,5.0,18.0,61,0.00,,,0.00,Wunderground v.1.15,2013-04-07 22:15:00,
2013-04-07 18:20:00,52.8,40.1,29.82,West,266,7.0,13.0,62,0.00,,,0.00,Wunderground v.1.15,2013-04-07 22:20:00,
2013-04-07 18:25:00,52.7,40.0,29.82,WNW,284,23.0,23.0,62,0.00,,,0.00,Wunderground v.1.15,2013-04-07 22:25:00,
2013-04-07 18:31:00,52.6,39.9,29.83,North,5,6.0,9.0,62,0.00,,,0.00,Wunderground v.1.15,2013-04-07 22:31:00,
2013-04-07 18:36:00,52.5,39.4,29.83,West,263,6.0,23.0,61,0.00,,,0.00,Wunderground v.1.15,2013-04-07 22:36:00,
2013-04-07 18:41:00,52.4,39.3,29.84,West,264,6.0,10.0,61,0.00,,,0.00,Wunderground v.1.15,2013-04-07 22:41:00,
2013-04-07 18:45:00,52.3,39.2,29.84,WNW,297,5.0,16.0,61,0.00,,,0.00,Wunderground v.1.15,2013-04-07 22:45:00,
2013-04-07 18:51:00,52.0,39.4,29.84,NW,304,8.0,12.0,62,0.00,,,0.00,Wunderground v.1.15,2013-04-07 22:51:00,
2013-04-07 18:56:00,51.5,38.9,29.84,WSW,252,9.0,15.0,62,0.00,,,0.00,Wunderground v.1.15,2013-04-07 22:56:00,
2013-04-07 19:01:00,51.3,39.1,29.85,NNE,12,3.0,15.0,63,0.00,,,0.00,Wunderground v.1.15,2013-04-07 23:01:00,
2013-04-07 19:06:00,51.0,38.8,29.85,West,265,16.0,16.0,63,0.00,,,0.00,Wunderground v.1.15,2013-04-07 23:06:00,
2013-04-07 19:12:00,50.5,38.8,29.86,WNW,298,8.0,12.0,64,0.00,,,0.00,Wunderground v.1.15,2013-04-07 23:12:00,
2013-04-07 19:17:00,50.0,38.7,29.86,West,269,5.0,13.0,65,0.00,,,0.00,Wunderground v.1.15,2013-04-07 23:17:00,
2013-04-07 19:22:00,49.6,38.3,29.86,WSW,237,5.0,11.0,65,0.00,,,0.00,Wunderground v.1.15,2013-04-07 23:22:00,
2013-04-07 19:27:00,49.4,38.1,29.87,North,360,7.0,17.0,65,0.00,,,0.00,Wunderground v.1.15,2013-04-07 23:27:00,
2013-04-07 19:32:00,49.3,38.0,29.87,WSW,255,5.0,10.0,65,0.00,,,0.00,Wunderground v.1.15,2013-04-07 23:32:00,
2013-04-07 19:37:00,49.2,37.9,29.88,NW,308,9.0,16.0,65,0.00,,,0.00,Wunderground v.1.15,2013-04-07 23:37:00,
2013-04-07 19:42:00,49.0,37.7,29.88,WNW,298,3.0,20.0,65,0.00,,,0.00,Wunderground v.1.15,2013-04-07 23:42:00,
2013-04-07 19:47:00,48.8,37.9,29.88,NW,308,6.0,20.0,66,0.00,,,0.00,Wunderground v.1.15,2013-04-07 23:47:00,
2013-04-07 19:52:00,48.7,37.8,29.89,WNW,296,10.0,14.0,66,0.00,,,0.00,Wunderground v.1.15,2013-04-07 23:52:00,
2013-04-07 19:58:00,48.7,37.8,29.89,WNW,288,10.0,17.0,66,0.00,,,0.00,Wunderground v.1.15,2013-04-07 23:58:00,
2013-04-07 20:03:00,48.7,37.8,29.89,North,355,4.0,18.0,66,0.00,,,0.00,Wunderground v.1.15,2013-04-08 00:03:00,
2013-04-07 20:08:00,48.5,37.7,29.90,West,267,4.0,18.0,66,0.00,,,0.00,Wunderground v.1.15,2013-04-08 00:08:00,
2013-04-07 20:13:00,48.4,37.9,29.90,WNW,302,12.0,15.0,67,0.00,,,0.00,Wunderground v.1.15,2013-04-08 00:13:00,
2013-04-07 20:18:00,47.9,37.5,29.90,WSW,250,5.0,15.0,67,0.00,,,0.00,Wunderground v.1.15,2013-04-08 00:18:00,
2013-04-07 20:23:00,47.5,37.1,29.91,NNW,344,4.0,20.0,67,0.00,,,0.00,Wunderground v.1.15,2013-04-08 00:23:00,
2013-04-07 20:28:00,47.3,36.9,29.92,NNE,16,5.0,20.0,67,0.00,,,0.00,Wunderground v.1.15,2013-04-08 00:28:00,
2013-04-07 20:33:00,47.1,36.7,29.92,SW,230,6.0,11.0,67,0.00,,,0.00,Wunderground v.1.15,2013-04-08 00:33:00,
2013-04-07 20:38:00,46.8,36.8,29.92,NW,313,11.0,18.0,68,0.00,,,0.00,Wunderground v.1.15,2013-04-08 00:38:00,
2013-04-07 20:43:00,46.5,36.5,29.92,West,281,8.0,12.0,68,0.00,,,0.00,Wunderground v.1.15,2013-04-08 00:43:00,
2013-04-07 20:48:00,46.3,36.7,29.93,WNW,292,4.0,14.0,69,0.00,,,0.00,Wunderground v.1.15,2013-04-08 00:48:00,
2013-04-07 20:53:00,46.0,36.8,29.94,West,279,8.0,11.0,70,0.00,,,0.00,Wunderground v.1.15,2013-04-08 00:53:00,
2013-04-07 20:58:00,45.8,36.6,29.94,WNW,288,3.0,20.0,70,0.00,,,0.00,Wunderground v.1.15,2013-04-08 00:58:00,
2013-04-07 21:03:00,45.7,36.5,29.95,WNW,283,5.0,12.0,70,0.00,,,0.00,Wunderground v.1.15,2013-04-08 01:03:00,
2013-04-07 21:08:00,45.6,36.4,29.95,West,279,9.0,12.0,70,0.00,,,0.00,Wunderground v.1.15,2013-04-08 01:08:00,
2013-04-07 21:13:00,45.5,36.3,29.96,WNW,302,6.0,12.0,70,0.00,,,0.00,Wunderground v.1.15,2013-04-08 01:13:00,
2013-04-07 21:18:00,45.4,36.2,29.96,WNW,300,11.0,19.0,70,0.00,,,0.00,Wunderground v.1.15,2013-04-08 01:18:00,
2013-04-07 21:23:00,45.2,36.4,29.96,NW,315,12.0,13.0,71,0.00,,,0.00,Wunderground v.1.15,2013-04-08 01:23:00,
2013-04-07 21:28:00,45.1,36.3,29.97,West,279,5.0,13.0,71,0.00,,,0.00,Wunderground v.1.15,2013-04-08 01:28:00,
2013-04-07 21:33:00,45.0,36.2,29.97,NNW,331,9.0,9.0,71,0.00,,,0.00,Wunderground v.1.15,2013-04-08 01:33:00,
2013-04-07 21:39:00,44.9,36.1,29.98,WNW,289,13.0,14.0,71,0.00,,,0.00,Wunderground v.1.15,2013-04-08 01:39:00,
2013-04-07 21:44:00,45.0,35.8,29.98,WNW,303,7.0,14.0,70,0.00,,,0.00,Wunderground v.1.15,2013-04-08 01:44:00,
2013-04-07 21:49:00,44.9,35.7,29.99,WNW,300,8.0,15.0,70,0.00,,,0.00,Wunderground v.1.15,2013-04-08 01:49:00,
2013-04-07 21:54:00,44.9,35.7,29.99,West,274,8.0,13.0,70,0.00,,,0.00,Wunderground v.1.15,2013-04-08 01:54:00,
2013-04-07 22:00:00,44.9,35.7,29.99,West,272,4.0,15.0,70,0.00,,,0.00,Wunderground v.1.15,2013-04-08 02:00:00,
2013-04-07 22:05:00,44.8,35.6,29.99,West,267,6.0,9.0,70,0.00,,,0.00,Wunderground v.1.15,2013-04-08 02:05:00,
2013-04-07 22:10:00,44.8,35.6,29.99,WNW,290,1.0,5.0,70,0.00,,,0.00,Wunderground v.1.15,2013-04-08 02:10:00,
2013-04-07 22:15:00,44.8,35.6,30.00,WNW,291,6.0,13.0,70,0.00,,,0.00,Wunderground v.1.15,2013-04-08 02:15:00,
2013-04-07 22:20:00,44.7,35.5,30.00,NW,309,2.0,5.0,70,0.00,,,0.00,Wunderground v.1.15,2013-04-08 02:20:00,
2013-04-07 22:25:00,44.7,35.5,30.00,NNW,346,4.0,14.0,70,0.00,,,0.00,Wunderground v.1.15,2013-04-08 02:25:00,
2013-04-07 22:30:00,44.6,35.4,30.00,West,281,6.0,6.0,70,0.00,,,0.00,Wunderground v.1.15,2013-04-08 02:30:00,
2013-04-07 22:36:00,44.5,35.7,30.00,NW,307,5.0,11.0,71,0.00,,,0.00,Wunderground v.1.15,2013-04-08 02:36:00,
2013-04-07 22:41:00,44.4,35.6,30.00,NW,313,3.0,6.0,71,0.00,,,0.00,Wunderground v.1.15,2013-04-08 02:41:00,
2013-04-07 22:47:00,44.3,35.5,30.00,WNW,292,3.0,9.0,71,0.00,,,0.00,Wunderground v.1.15,2013-04-08 02:47:00,
2013-04-07 22:52:00,44.3,35.5,30.00,NW,323,2.0,5.0,71,0.00,,,0.00,Wunderground v.1.15,2013-04-08 02:52:00,
2013-04-07 22:57:00,44.3,35.5,30.00,NNW,329,2.0,6.0,71,0.00,,,0.00,Wunderground v.1.15,2013-04-08 02:57:00,
2013-04-07 23:02:00,44.2,35.4,30.00,WNW,283,8.0,9.0,71,0.00,,,0.00,Wunderground v.1.15,2013-04-08 03:02:00,
2013-04-07 23:07:00,44.2,35.4,30.01,WNW,288,2.0,9.0,71,0.00,,,0.00,Wunderground v.1.15,2013-04-08 03:07:00,
2013-04-07 23:12:00,44.1,35.6,30.01,WNW,286,3.0,9.0,72,0.00,,,0.00,Wunderground v.1.15,2013-04-08 03:12:00,
2013-04-07 23:17:00,44.0,35.6,30.01,West,266,6.0,10.0,72,0.00,,,0.00,Wunderground v.1.15,2013-04-08 03:17:00,
2013-04-07 23:22:00,43.9,35.5,30.01,WNW,287,5.0,6.0,72,0.00,,,0.00,Wunderground v.1.15,2013-04-08 03:22:00,
2013-04-07 23:27:00,43.8,35.4,30.01,West,281,2.0,7.0,72,0.00,,,0.00,Wunderground v.1.15,2013-04-08 03:27:00,
2013-04-07 23:32:00,43.8,35.4,30.01,WNW,292,8.0,9.0,72,0.00,,,0.00,Wunderground v.1.15,2013-04-08 03:32:00,
2013-04-07 23:38:00,43.7,35.6,30.01,WNW,287,5.0,9.0,73,0.00,,,0.00,Wunderground v.1.15,2013-04-08 03:38:00,
2013-04-07 23:43:00,43.7,35.6,30.01,WNW,290,3.0,4.0,73,0.00,,,0.00,Wunderground v.1.15,2013-04-08 03:43:00,
2013-04-07 23:48:00,43.6,35.5,30.01,WNW,288,3.0,10.0,73,0.00,,,0.00,Wunderground v.1.15,2013-04-08 03:48:00,
2013-04-07 23:53:00,43.4,35.3,30.02,North,355,6.0,8.0,73,0.00,,,0.00,Wunderground v.1.15,2013-04-08 03:53:00,
2013-04-07 23:58:00,43.3,35.6,30.02,NW,309,7.0,8.0,74,0.00,,,0.00,Wunderground v.1.15,2013-04-08 03:58:00,